Retour au catalogue

STARLINK-30711

ActifCommunicationsVLEO
NORAD 57940·PAYLOAD·🇺🇸 United States

Lancé Sep 25, 2023 depuis Vandenberg Space Force Base

Loading…

Prochains Passages (prochaines 24 heures)

TLE

FraisSource: CelesTrak SupGP

Époque: Sep 15, 2026, 01:55 UTC

1 57940C 23148F   26258.08034722 -.00045555  00000+0 -13458-2 0  2588
2 57940  53.1582 222.9047 0001403  93.3310 191.6405 15.34416348    10

Suivez STARLINK-30711 en temps réel avec AllMySat

Download on the App Store